Temperature
7 7 7 7 7 6 6 6 6 6 5 7 4 2 2 1 1 -0 -1 -1 -2 -3 -3 -4 -4 -5 -5 -5 -6 -6 -7 -8 -8 -9 -10 -11 -11 -12 -12 -12 -12 -12 -12 -11
7 8 7 6 6 5 5 5 5 5 6 5 3 3 1 1 0 -0 -1 -1 -2 -3 -4 -4 -4 -5 -5 -5 -6 -7 -7 -8 -8 -9 -10 -11 -11 -12 -12 -12 -12 -12 -12 -12
8 7 8 9 9 5 5 4 5 6 7 3 1 0 1 2 1 1 -0 -1 -2 -3 -3 -4 -4 -5 -5 -5 -6 -7 -7 -8 -8 -9 -10 -10 -11 -12 -12 -12 -12 -12 -12 -12
6 8 12 12 8 7 7 6 4 5 5 3 3 3 3 3 2 1 -0 -1 -2 -3 -3 -4 -4 -5 -5 -6 -6 -7 -7 -8 -8 -9 -10 -10 -11 -11 -12 -12 -12 -13 -13 -13
5 8 8 9 8 6 7 7 6 5 5 2 1 1 1 2 1 1 -1 -1 -2 -3 -3 -4 -4 -5 -5 -6 -6 -7 -7 -8 -8 -9 -10 -10 -11 -11 -12 -12 -12 -13 -13 -13
4 8 10 12 8 7 8 8 8 7 4 -0 -1 -0 1 4 2 -0 -1 -1 -2 -3 -3 -4 -4 -5 -5 -6 -6 -6 -7 -8 -8 -9 -9 -10 -10 -11 -11 -12 -12 -12 -12 -13
4 5 8 8 7 7 9 10 11 10 7 3 1 3 5 4 2 0 -1 -1 -2 -3 -3 -4 -4 -4 -5 -5 -6 -6 -7 -8 -8 -9 -9 -10 -10 -11 -11 -11 -12 -12 -12 -12
3 4 8 8 5 6 10 11 11 11 9 8 6 4 4 3 2 0 -1 -1 -2 -3 -3 -3 -4 -4 -5 -5 -6 -6 -7 -7 -8 -9 -9 -10 -10 -10 -10 -11 -11 -11 -12 -12
6 10 11 10 12 13 12 11 11 10 10 8 6 5 4 3 1 0 -1 -1 -2 -2 -3 -3 -4 -4 -5 -5 -6 -6 -6 -7 -7 -8 -9 -9 -10 -10 -10 -10 -11 -11 -12 -12
4 7 10 11 12 12 12 11 11 9 9 8 7 5 4 3 1 0 -1 -1 -2 -2 -3 -3 -4 -4 -5 -5 -5 -6 -6 -7 -7 -7 -8 -8 -9 -9 -10 -10 -11 -11 -12 -12
5 6 10 14 16 16 14 12 10 9 8 7 6 5 4 3 2 1 -0 -1 -2 -2 -3 -3 -4 -4 -4 -5 -5 -5 -6 -6 -6 -7 -7 -7 -8 -9 -9 -10 -11 -11 -11 -11
11 13 11 15 16 15 14 13 11 9 8 6 6 5 4 3 2 1 -0 -1 -2 -2 -3 -3 -4 -4 -4 -5 -5 -5 -5 -6 -6 -6 -7 -7 -7 -7 -8 -9 -10 -10 -11 -11
17 17 16 16 15 14 13 12 11 9 8 7 5 4 4 3 1 0 -0 -1 -2 -2 -3 -3 -3 -4 -4 -4 -5 -5 -5 -5 -6 -6 -6 -7 -7 -7 -7 -7 -8 -9 -10 -10
16 15 14 15 14 13 12 11 10 8 7 6 5 4 3 2 1 0 -0 -1 -2 -2 -3 -3 -3 -4 -4 -4 -4 -5 -5 -5 -5 -6 -6 -6 -7 -7 -7 -8 -8 -8 -9 -10
15 15 14 14 13 12 11 10 9 8 6 5 4 4 3 3 2 1 -0 -1 -2 -2 -3 -3 -3 -4 -4 -4 -4 -5 -5 -5 -5 -5 -6 -6 -6 -7 -7 -8 -8 -8 -9 -9
16 15 14 13 12 11 10 10 9 8 7 5 4 4 3 3 2 1 -1 -1 -1 -2 -2 -3 -3 -3 -4 -4 -4 -4 -5 -5 -5 -5 -6 -6 -6 -6 -7 -7 -8 -8 -9 -10
14 14 14 14 14 13 12 11 10 9 8 6 5 4 3 2 1 0 -1 -1 -1 -2 -3 -3 -3 -3 -4 -4 -4 -4 -5 -5 -5 -5 -6 -6 -6 -6 -7 -7 -7 -8 -9 -10
17 17 17 15 14 13 13 12 10 9 8 7 5 4 3 2 2 1 -0 -1 -2 -2 -2 -3 -3 -3 -3 -4 -4 -4 -4 -5 -5 -5 -6 -6 -6 -6 -7 -7 -7 -8 -8 -9
19 19 18 17 15 13 12 12 11 10 8 6 5 4 3 3 2 1 0 -1 -1 -1 -2 -2 -3 -3 -3 -4 -4 -4 -4 -5 -5 -5 -6 -6 -6 -6 -7 -7 -7 -8 -8 -9
19 19 19 18 16 14 13 12 10 9 8 6 5 4 3 3 2 1 -0 -1 -1 -1 -2 -3 -3 -3 -3 -4 -4 -4 -5 -5 -5 -5 -6 -6 -6 -7 -7 -7 -7 -8 -8 -9
20 20 20 19 17 15 13 11 10 10 9 7 5 4 4 3 2 1 0 -0 -0 -1 -2 -3 -3 -3 -3 -4 -4 -4 -5 -5 -5 -6 -6 -6 -6 -7 -7 -7 -8 -8 -8 -9
20 20 20 19 17 16 14 11 10 9 8 7 6 4 3 3 2 1 1 1 0 -1 -2 -2 -2 -3 -3 -4 -4 -4 -5 -5 -5 -6 -6 -6 -7 -7 -7 -8 -8 -8 -9 -9
19 19 19 18 17 16 13 11 10 9 9 8 6 5 4 3 3 2 1 1 -0 -1 -2 -2 -2 -3 -3 -4 -4 -4 -5 -5 -5 -6 -6 -6 -7 -7 -7 -8 -8 -8 -9 -9
17 17 16 15 14 13 12 12 10 9 8 7 6 5 4 4 3 2 2 1 0 -1 -2 -2 -3 -3 -3 -4 -4 -4 -5 -5 -5 -6 -6 -7 -7 -7 -8 -8 -8 -9 -9 -9
15 15 15 14 13 13 13 11 10 8 7 7 6 5 4 4 3 3 2 1 0 -1 -2 -2 -3 -3 -3 -3 -4 -4 -5 -5 -5 -6 -6 -7 -7 -7 -8 -8 -8 -9 -9 -9
13 13 13 12 12 12 12 11 10 9 8 7 6 5 4 3 2 2 1 0 -0 -1 -2 -2 -3 -3 -3 -3 -4 -4 -5 -5 -6 -6 -6 -7 -7 -8 -8 -8 -9 -9 -9 -9
11 11 10 10 10 10 10 10 10 10 9 8 7 6 4 3 3 2 1 0 -0 -1 -1 -2 -3 -3 -3 -3 -4 -4 -5 -5 -5 -6 -6 -7 -7 -8 -8 -8 -9 -9 -9 -10
Wind_Speed
8 6 4 7 9 9 10 9 10 11 10 14 8 10 10 9 9 8 7 6 5 3 3 4 5 6 6 7 7 7 8 8 9 9 10 10 11 11 11 12 14 14 15 17
6 2 4 8 11 10 10 8 10 11 17 9 2 4 8 10 11 10 8 8 6 5 4 4 5 5 6 6 7 7 7 8 9 9 10 10 11 11 12 12 13 14 15 16
6 6 7 9 8 9 8 10 10 11 10 3 4 8 11 13 13 11 9 8 7 6 5 5 4 4 5 6 7 7 7 8 9 9 10 10 11 11 12 11 12 13 14 15
4 9 6 7 2 7 8 10 11 11 9 7 6 4 5 8 12 11 9 9 8 6 5 4 3 4 5 5 6 7 7 8 8 9 9 10 9 10 10 9 10 9 11 14
2 4 10 11 4 6 6 10 9 12 11 4 5 3 3 7 9 10 9 8 7 6 5 3 3 3 4 5 6 6 7 8 8 8 9 9 9 10 8 8 9 9 10 12
4 2 7 8 3 4 2 8 7 9 8 9 9 3 6 10 10 9 8 7 7 5 4 3 3 2 3 5 6 7 7 8 8 8 8 9 9 8 7 8 9 11 11 11
5 7 11 7 5 6 2 8 4 9 10 13 13 7 3 12 10 9 8 8 7 6 5 4 3 2 3 5 6 7 7 8 8 8 8 8 7 7 8 9 10 10 10 11
6 5 10 7 10 10 11 2 5 7 9 12 9 5 8 11 12 11 9 8 7 6 5 4 3 3 4 6 6 7 7 7 8 8 8 8 8 8 8 9 9 9 8 9
12 11 6 11 12 9 5 7 7 8 9 12 10 9 10 10 11 10 10 9 7 6 5 4 4 4 5 5 6 6 7 8 8 9 8 8 8 8 8 8 8 9 7 8
8 14 12 13 13 10 9 9 8 9 10 15 11 12 12 12 12 10 10 8 7 7 6 5 5 5 5 6 6 6 7 8 8 8 8 8 7 7 7 8 9 8 7 8
9 12 11 11 13 15 11 9 8 8 10 15 14 13 14 13 13 12 11 8 7 7 7 7 5 5 5 5 5 6 7 7 8 8 8 8 8 7 9 7 10 11 7 7
12 12 9 9 6 8 12 13 13 12 10 10 12 15 15 13 12 11 10 9 8 8 7 7 6 6 5 5 4 5 6 7 6 7 7 8 8 10 13 13 17 16 16 15
12 7 8 7 3 7 10 12 13 15 14 12 11 13 15 10 11 11 10 10 11 10 8 7 6 6 6 5 4 5 6 6 6 7 7 8 8 9 11 13 16 16 18 19
11 5 7 8 8 9 9 9 11 10 10 11 12 11 12 10 10 12 13 12 10 8 7 7 6 7 6 5 5 5 6 7 7 5 6 6 7 7 8 10 11 10 14 19
15 16 13 6 5 7 7 9 10 11 10 10 10 12 14 14 14 15 11 10 9 8 8 7 7 7 5 5 5 5 5 4 5 5 5 5 6 6 7 8 9 10 10 12
7 10 10 9 10 10 10 12 14 16 15 14 13 14 14 14 12 11 11 12 10 11 10 9 9 6 5 5 4 4 4 7 7 4 4 5 5 6 7 8 8 9 9 10
9 11 12 12 15 16 17 17 17 17 17 17 17 15 13 11 10 11 12 12 11 9 8 9 8 6 5 5 4 4 3 4 7 5 4 5 5 5 6 6 7 8 9 12
19 18 14 12 12 17 18 17 15 16 16 16 15 15 16 17 17 15 13 11 8 7 8 8 7 6 6 6 5 4 3 3 3 4 4 4 5 4 5 6 7 8 9 10
21 20 16 16 14 15 17 18 18 17 15 16 18 19 18 17 14 12 12 12 12 12 10 10 14 10 8 8 7 4 4 3 3 3 4 5 5 5 5 6 7 7 8 9
17 17 16 14 13 13 15 15 15 16 16 17 17 16 15 14 13 13 14 14 13 9 7 10 11 9 8 8 8 5 4 4 3 3 3 3 4 5 5 6 7 7 8 8
18 17 16 16 16 14 14 16 18 18 18 19 20 20 18 15 14 14 13 13 11 10 9 13 10 8 8 8 9 5 5 4 4 3 3 3 4 5 5 6 7 7 8 9
17 17 18 17 16 15 14 15 16 18 18 18 18 16 15 15 16 13 13 10 9 16 12 9 8 12 13 12 6 6 6 5 4 4 3 3 3 4 5 5 6 7 7 8
14 14 15 16 16 13 12 14 17 18 20 21 20 20 19 17 15 14 13 11 8 16 13 10 14 18 18 10 7 7 7 6 5 5 4 4 4 4 4 5 5 6 7 8
9 10 10 9 10 12 16 16 16 14 15 16 17 17 17 14 12 12 6 14 21 19 12 15 21 21 19 8 8 7 7 7 6 5 5 4 4 4 4 5 5 6 6 8
7 8 10 13 16 15 15 13 14 13 13 12 13 14 14 11 11 12 11 12 21 20 12 16 22 22 13 8 9 8 7 7 7 6 6 5 5 4 4 4 5 6 6 7
6 8 10 12 11 8 10 13 13 13 13 13 12 12 12 9 8 9 11 12 15 19 14 11 12 15 10 10 10 9 8 8 8 7 6 6 5 5 4 4 6 5 6 7
5 5 6 7 8 9 11 13 14 15 16 15 14 13 14 13 12 11 12 12 12 13 12 11 11 10 10 10 10 9 8 7 7 6 6 5 5 5 5 5 5 7 8 10
Wind_Direction
259 264 245 245 232 200 200 208 218 248 253 273 254 220 199 176 166 170 184 190 193 208 248 276 293 302 308 314 322 329 329 327 324 323 324 326 330 331 332 335 339 336 337 339
295 220 268 267 246 220 223 225 239 266 275 273 295 146 159 170 176 187 195 197 197 208 232 260 280 296 311 317 321 325 324 322 323 329 330 330 332 334 336 338 336 337 339 340
290 307 319 284 243 190 210 212 203 231 251 187 204 196 188 186 187 193 193 192 195 207 224 245 263 285 301 307 314 322 321 321 326 327 329 330 334 337 337 333 333 336 337 340
312 353 298 253 138 179 218 244 217 240 255 209 216 189 188 182 184 188 184 184 190 196 213 231 251 283 296 307 317 321 320 320 322 325 325 325 328 332 329 325 329 330 331 337
57 314 284 295 231 182 210 279 223 228 247 153 111 77 266 204 185 182 178 176 182 189 197 211 248 284 306 315 320 321 320 319 318 317 320 323 326 325 320 321 323 326 331 334
134 237 259 259 159 161 102 286 240 201 195 157 144 184 247 184 168 161 159 159 169 175 182 210 241 281 302 310 315 315 312 311 310 311 316 315 316 315 314 319 324 330 330 330
182 231 264 252 151 144 184 259 212 184 179 170 188 204 177 150 151 152 156 162 165 172 191 214 233 261 286 297 298 299 305 308 310 312 311 307 313 312 315 323 325 322 320 320
168 210 259 192 147 187 220 206 183 190 182 184 186 137 142 152 155 157 160 165 169 179 203 218 224 233 272 283 288 300 307 309 310 310 312 323 317 313 315 317 318 315 314 319
195 221 246 179 204 220 191 201 204 195 187 169 161 168 163 164 164 167 170 174 175 184 201 227 228 225 260 275 297 309 312 311 309 311 309 311 310 310 315 315 315 318 319 324
246 263 252 228 236 238 209 213 207 186 171 169 172 171 169 170 174 176 178 179 175 181 202 225 232 237 246 274 294 305 308 309 310 311 312 314 314 314 315 315 314 316 325 326
253 271 288 263 232 231 215 204 182 173 175 178 168 170 175 177 181 183 184 179 179 189 205 221 229 244 257 271 290 302 305 307 313 317 312 314 319 314 317 310 319 333 330 322
239 230 215 248 233 197 193 200 188 174 173 178 176 176 175 180 180 179 179 175 182 195 209 218 223 242 256 263 276 292 307 314 315 316 320 323 322 324 329 336 338 342 342 341
232 234 216 247 227 189 199 198 184 182 178 179 180 175 173 172 175 175 177 182 192 199 205 208 217 238 249 254 268 277 289 304 308 317 321 324 328 330 329 334 340 346 347 346
235 222 256 235 223 206 196 180 172 177 178 172 167 167 168 162 166 180 190 193 191 191 198 204 216 235 239 242 261 274 285 302 311 302 310 316 320 324 327 330 333 335 341 345
230 218 229 226 191 174 164 152 164 178 173 167 164 167 171 174 182 190 188 178 178 189 202 205 218 233 227 230 253 273 290 290 292 300 311 315 318 323 328 330 331 331 334 340
224 218 224 219 209 187 176 182 189 192 185 179 178 182 184 182 179 175 174 174 180 200 206 206 218 222 211 220 247 268 282 308 321 324 323 323 322 327 332 333 334 334 337 335
208 229 214 220 216 205 201 199 199 193 187 186 187 179 168 164 168 179 186 189 194 199 198 203 212 207 204 211 226 246 266 296 322 326 315 310 311 320 325 328 330 332 333 334
223 233 215 206 208 207 208 205 201 191 189 189 172 165 172 180 189 191 187 180 187 209 217 210 204 201 207 211 216 223 240 265 287 298 303 308 318 321 320 321 325 329 331 336
231 234 227 215 203 196 199 200 199 192 181 171 171 179 186 190 188 178 170 175 191 213 221 207 210 204 206 214 209 200 217 248 274 289 295 319 335 322 322 323 325 327 331 338
231 229 223 213 199 194 197 191 185 183 180 175 177 179 185 188 178 172 176 192 205 204 185 185 194 193 196 210 206 190 205 226 249 276 291 303 313 318 322 326 327 328 332 336
228 222 214 210 205 198 190 182 181 183 180 179 182 186 188 184 177 174 182 205 212 192 185 191 187 191 192 201 203 187 199 214 230 247 271 292 304 312 318 323 326 329 332 334
222 217 212 205 198 197 188 181 181 178 177 183 187 182 177 177 180 187 200 206 186 188 189 193 188 195 196 199 184 186 199 210 220 229 245 264 283 299 310 316 319 324 327 326
224 215 207 200 196 187 172 179 181 180 183 185 186 185 185 184 183 188 205 206 182 189 186 193 197 200 202 195 184 192 200 208 215 222 231 243 259 274 289 301 306 313 315 317
218 205 197 180 161 167 185 189 184 184 185 187 189 187 181 179 190 201 188 179 186 191 191 196 198 201 201 183 184 193 201 207 212 217 225 235 246 259 271 284 295 301 306 312
205 187 175 175 187 198 195 175 172 174 177 186 189 188 188 185 184 189 181 177 185 189 190 197 199 201 194 179 189 196 201 208 210 210 217 226 237 250 262 273 286 297 304 307
201 199 200 204 204 191 175 174 181 184 184 187 190 189 189 183 165 163 174 181 184 188 186 189 194 199 189 186 193 197 201 213 227 221 211 218 230 241 254 266 281 288 295 300
205 203 200 205 205 189 181 184 187 187 188 188 185 184 182 180 177 173 174 181 185 188 186 188 190 190 188 190 193 197 199 202 206 210 212 216 223 232 243 257 271 283 292 297
Height
1593 1590 1591 1588 1586 1589 1591 1588 1588 1575 1570 1554 1555 1555 1556 1560 1563 1566 1568 1569 1569 1569 1568 1566 1564 1561 1557 1553 1549 1544 1539 1534 1528 1522 1516 1510 1504 1498 1493 1487 1480 1474 1467 1459
1591 1587 1589 1587 1580 1583 1583 1582 1579 1573 1563 1550 1550 1550 1552 1556 1559 1561 1564 1565 1566 1566 1565 1563 1561 1559 1555 1551 1547 1543 1538 1533 1527 1521 1516 1510 1504 1498 1493 1487 1481 1474 1467 1461
1593 1589 1583 1576 1564 1572 1572 1569 1567 1564 1552 1549 1549 1549 1549 1551 1554 1557 1560 1562 1562 1562 1562 1561 1559 1556 1553 1550 1546 1542 1537 1532 1527 1521 1515 1509 1504 1498 1493 1487 1481 1475 1469 1462
1601 1591 1578 1560 1559 1560 1561 1556 1555 1551 1546 1546 1546 1546 1547 1549 1551 1554 1557 1558 1559 1559 1559 1558 1557 1554 1551 1548 1545 1541 1536 1532 1526 1521 1515 1509 1504 1498 1493 1487 1482 1476 1470 1464
1604 1596 1583 1561 1556 1558 1559 1552 1543 1544 1540 1543 1544 1545 1545 1545 1548 1551 1553 1555 1556 1556 1556 1556 1554 1552 1550 1547 1544 1540 1535 1530 1525 1520 1515 1509 1503 1498 1492 1487 1482 1476 1471 1465
1605 1594 1582 1555 1554 1554 1557 1552 1536 1536 1536 1540 1543 1548 1541 1540 1544 1547 1550 1552 1553 1554 1554 1553 1552 1550 1548 1545 1542 1538 1533 1529 1524 1520 1515 1509 1504 1498 1493 1487 1482 1477 1472 1466
1603 1599 1573 1551 1551 1555 1558 1543 1532 1531 1531 1533 1535 1536 1536 1537 1540 1544 1546 1548 1550 1551 1551 1551 1550 1548 1546 1543 1540 1536 1532 1528 1524 1519 1514 1509 1504 1499 1493 1488 1483 1477 1472 1467
1600 1599 1570 1545 1548 1548 1537 1528 1528 1528 1528 1528 1529 1531 1533 1535 1538 1540 1543 1545 1547 1548 1548 1548 1547 1546 1544 1542 1539 1535 1532 1528 1523 1519 1514 1509 1504 1498 1493 1487 1482 1476 1471 1466
1569 1553 1536 1534 1530 1527 1526 1525 1524 1524 1524 1524 1526 1528 1530 1533 1535 1538 1540 1542 1544 1545 1546 1546 1545 1544 1542 1540 1537 1534 1531 1527 1523 1518 1514 1508 1503 1497 1492 1486 1481 1476 1471 1466
1556 1537 1527 1526 1523 1522 1521 1520 1519 1520 1520 1520 1522 1524 1527 1530 1532 1535 1537 1539 1541 1542 1543 1543 1542 1541 1540 1538 1536 1532 1529 1525 1521 1517 1512 1508 1502 1496 1491 1485 1480 1476 1471 1466
1546 1529 1521 1515 1514 1513 1514 1514 1513 1514 1515 1516 1519 1521 1523 1525 1528 1531 1534 1536 1538 1539 1540 1540 1540 1539 1538 1536 1534 1531 1528 1524 1520 1516 1511 1506 1501 1496 1490 1485 1481 1477 1472 1467
1527 1515 1515 1510 1509 1508 1508 1507 1507 1508 1509 1512 1514 1517 1519 1521 1524 1527 1530 1532 1534 1535 1536 1537 1537 1536 1535 1534 1532 1529 1526 1523 1519 1514 1510 1505 1500 1495 1492 1486 1481 1476 1472 1468
1509 1508 1507 1504 1503 1502 1502 1502 1502 1502 1504 1506 1509 1512 1515 1517 1520 1523 1526 1528 1530 1532 1533 1533 1533 1533 1532 1531 1529 1527 1524 1521 1518 1513 1509 1504 1499 1493 1488 1485 1481 1476 1470 1466
1504 1504 1500 1496 1496 1497 1496 1496 1497 1498 1500 1503 1505 1508 1510 1513 1516 1518 1521 1524 1527 1528 1529 1530 1530 1530 1530 1529 1527 1525 1523 1520 1517 1513 1509 1504 1499 1494 1488 1482 1477 1473 1469 1465
1494 1494 1491 1490 1489 1489 1489 1489 1490 1490 1493 1496 1499 1502 1505 1507 1510 1513 1518 1520 1522 1524 1525 1526 1527 1527 1527 1526 1525 1523 1522 1519 1516 1513 1509 1504 1500 1494 1489 1483 1477 1472 1467 1463
1485 1484 1482 1480 1479 1480 1480 1481 1481 1482 1485 1488 1492 1495 1499 1503 1506 1510 1513 1515 1517 1519 1521 1522 1523 1524 1523 1523 1522 1521 1520 1518 1515 1512 1508 1504 1500 1495 1489 1484 1478 1472 1467 1461
1476 1472 1471 1470 1469 1469 1470 1471 1472 1475 1477 1480 1484 1490 1494 1497 1500 1503 1506 1509 1512 1515 1517 1518 1519 1520 1520 1520 1519 1519 1517 1516 1513 1511 1507 1504 1499 1495 1490 1484 1479 1473 1468 1462
1462 1461 1460 1460 1460 1460 1461 1463 1464 1467 1469 1474 1479 1483 1486 1489 1492 1496 1500 1504 1507 1509 1511 1513 1515 1516 1516 1516 1516 1516 1515 1514 1512 1509 1506 1503 1499 1495 1490 1485 1480 1474 1468 1463
1451 1450 1450 1449 1449 1450 1452 1453 1455 1458 1462 1467 1470 1474 1478 1482 1487 1491 1495 1498 1500 1502 1506 1508 1510 1511 1512 1512 1513 1512 1512 1511 1510 1508 1505 1502 1499 1495 1490 1485 1480 1475 1469 1463
1441 1441 1440 1438 1438 1439 1441 1443 1447 1450 1453 1458 1462 1467 1471 1475 1480 1484 1487 1490 1493 1497 1502 1503 1505 1506 1508 1508 1509 1509 1509 1508 1507 1505 1503 1501 1498 1494 1490 1485 1480 1475 1469 1464
1431 1431 1429 1428 1427 1428 1431 1434 1437 1440 1444 1448 1452 1456 1462 1468 1473 1476 1479 1482 1487 1492 1495 1497 1499 1501 1503 1504 1504 1505 1505 1505 1504 1503 1501 1499 1496 1493 1489 1484 1480 1475 1469 1464
1419 1418 1416 1416 1416 1418 1420 1424 1428 1431 1435 1439 1444 1450 1455 1460 1464 1468 1472 1476 1481 1485 1488 1491 1493 1496 1497 1499 1500 1500 1501 1501 1500 1500 1498 1496 1494 1491 1487 1483 1479 1474 1469 1464
1406 1405 1404 1404 1405 1407 1411 1414 1418 1421 1425 1429 1434 1439 1445 1450 1455 1460 1463 1469 1474 1478 1481 1484 1488 1490 1492 1493 1494 1496 1496 1497 1497 1496 1495 1493 1491 1489 1486 1482 1478 1474 1469 1463
1395 1394 1394 1396 1398 1400 1401 1404 1409 1413 1418 1422 1427 1433 1438 1443 1448 1453 1458 1463 1467 1471 1474 1478 1481 1484 1486 1487 1489 1490 1491 1492 1492 1492 1491 1490 1488 1486 1483 1480 1476 1472 1468 1463
1387 1386 1386 1387 1388 1389 1393 1397 1401 1405 1410 1414 1419 1425 1431 1436 1441 1446 1451 1455 1460 1463 1467 1471 1474 1477 1479 1481 1483 1485 1486 1487 1487 1488 1487 1486 1485 1483 1481 1478 1474 1470 1466 1461
1380 1379 1379 1379 1380 1382 1385 1388 1391 1395 1400 1404 1409 1415 1421 1428 1434 1439 1444 1448 1452 1456 1459 1464 1467 1470 1472 1475 1477 1479 1480 1481 1482 1482 1483 1482 1481 1479 1477 1475 1472 1468 1464 1459
1373 1372 1371 1371 1372 1374 1376 1379 1383 1386 1391 1395 1400 1406 1412 1419 1425 1430 1435 1440 1444 1447 1451 1455 1459 1462 1465 1468 1470 1472 1474 1476 1477 1477 1477 1477 1477 1475 1474 1471 1468 1465 1461 1457